Location: Unspecified
(0.0000°N, 0.0000°E)
Time: 17:46:49
(UTC+00:00)

SRMSAT - Pass Details

Date: 18 July 2019
Orbit: 848 x 865 km, 20.0° (Epoch: 07 December)

Event Time Altitude Azimuth Distance (km) Brightness Sun altitude
Rises 20:02:57 0° 270° (W) 3,429 ? -27.1°
Reaches altitude 10° 20:05:49 10° 280° (W) 2,490 ? -27.7°
Maximum altitude 20:11:02 31° 341° (NNW) 1,460 ? -28.9°
Enters shadow 20:13:38 22° 22° (NNE) 1,767 ? -29.5°
